Regional Weather Roundup
Issued by NWS

Home | Current Version | Previous Version | Graphics & Text | Print | Product List | Glossary On
Versions: 1 2 3 4 5 6 7 8 9 10 11 12 13 14 15 16 17 18 19 20 21 22 23 24 25 26 27 28 29 30 31 32 33 34 35 36 37 38 39 40 41 42 43 44 45 46 47 48 49 50
000
ASUS43 KOAX 220802
RWRNE

WEATHER ROUNDUP FOR NEBRASKA
NATIONAL WEATHER SERVICE OMAHA NE
200 AM CST MON DEC 22 2014

NOTES: SATELLITE DATA IS BEING USED TO AUGMENT CLOUD COVER ABOVE
       12000 FEET.
       "FAIR" INDICATES FEW OR NO CLOUDS BELOW 12,000 FEET WITH NO
       SIGNIFICANT WEATHER AND/OR OBSTRUCTIONS TO VISIBILITY.

  * THESE STATIONS DO NOT REPORT WEATHER SUCH AS RAIN...SNOW OR FOG.

NEZ001>004-019>022-054>056-220900-
NEBRASKA PANHANDLE

CITY           SKY/WX    TMP DP  RH WIND       PRES   REMARKS
SCOTTSBLUFF    MOCLDY    36  30  79 W13       29.63R WCI  27
ALLIANCE       PTCLDY    35  28  75 NW14      29.57R WCI  26
CHADRON        CLOUDY    38  30  73 NW21G29   29.58S WCI  28
SIDNEY         CLOUDY    36  28  73 NW16      29.61R WCI  26
$$

NEZ057>060-069>072-079>082-220900-
SOUTHWEST NEBRASKA

CITY           SKY/WX    TMP DP  RH WIND       PRES   REMARKS
NORTH PLATTE   MOCLDY    26  25  96 N5        29.52S WCI  20
IMPERIAL       CLOUDY    40  29  64 NW17      29.55S WCI  31
MCCOOK         PTCLDY    34  30  85 W14       29.52F WCI  25
$$

NEZ005>010-023>029-035>040-094-220900-
NORTH CENTRAL NEBRASKA

CITY           SKY/WX    TMP DP  RH WIND       PRES   REMARKS
VALENTINE      CLOUDY    39  34  82 NW13G18   29.47S WCI  31
BROKEN BOW     CLOUDY    36  33  89 W6        29.48S WCI  31
$$

NEZ041-046>049-061>064-073>077-083>087-220900-
SOUTH CENTRAL NEBRASKA

CITY           SKY/WX    TMP DP  RH WIND       PRES   REMARKS
GRAND ISLAND   CLOUDY    42  39  89 S10       29.52S
HASTINGS       CLOUDY    42  39  89 S12       29.51S
KEARNEY *      CLOUDY    39  37  93 S9        29.51S WCI  33
$$

NEZ011>018-030>034-042>045-220900-
NORTHEAST NEBRASKA

CITY           SKY/WX    TMP DP  RH WIND       PRES   REMARKS
NORFOLK        CLOUDY    43  40  89 S13       29.51F
COLUMBUS *     CLOUDY    43  39  87 S14       29.54F
TEKAMAH        LGT RAIN  44  42  93 SE15      29.58F FOG
$$

NEZ050>053-065>068-078-088>093-220900-
SOUTHEAST NEBRASKA

CITY           SKY/WX    TMP DP  RH WIND       PRES   REMARKS
LINCOLN        LGT RAIN  44  42  93 S14       29.58F
OMAHA EPPLEY   DRIZZLE   43  42  97 S15       29.61F FOG
FALLS CITY     CLOUDY    43  40  89 S9        29.64F
$$

NEZ044-045-051>053-067-220900-
OMAHA AREA

CITY           SKY/WX    TMP DP  RH WIND       PRES   REMARKS
OMAHA EPPLEY   DRIZZLE   43  42  97 S15       29.61F FOG
OFFUTT AFB     CLOUDY    43  42  96 SE12      29.60F
$$



USA.gov is the U.S. government's official web portal to all federal, state and local government web resources and services.